This demonstration page uses our WeatherBlox Daily Observations layout. Learn more.

Left ArrowRight Arrow

34.02893, -84.19858

Hourly Observations for May 2, 2022

Temp ( °F °C ) Dew Point ( °F °C ) Humidity (%) Winds ( mph kmh ) Pressure ( in mb ) Visibility ( mi km ) Precip ( " mm )
12:53 am 00:53 Partly Cloudy 66 18.9 62 16.7 87 87 S 5 7 30.04 1017 10 16 0.00 0.00
1:53 am 01:53 Mostly Clear 66 18.9 62 16.7 87 87 Calm 30.04 1017 10 16 0.00 0.00
2:53 am 02:53 Clear 65 18.3 62 16.7 90 90 SW 3 6 30.03 1017 10 16 0.00 0.00
3:53 am 03:53 Clear 65 18.3 62 16.7 90 90 SW 3 6 30.02 1017 10 16 0.00 0.00
4:53 am 04:53 Cloudy 66 18.9 63 17.2 90 90 WNW 5 7 30.03 1017 10 16 0.00 0.00
5:53 am 05:53 Clear 62 16.7 61 16.1 96 96 SSW 3 6 30.02 1017 8 13 0.00 0.00
6:53 am 06:53 Sunny 62 16.7 61 16.1 96 96 SW 3 6 30.04 1017 7 11 0.00 0.00
7:53 am 07:53 Sunny 65 18.3 63 17.2 93 93 WSW 3 6 30.06 1018 9 14 0.00 0.00
8:53 am 08:53 Sunny 68 20 64 17.8 87 87 WSW 6 9 30.09 1019 10 16 0.00 0.00
9:53 am 09:53 Sunny 73 22.8 63 17.2 71 71 W 5 7 30.09 1019 10 16 0.00 0.00
10:53 am 10:53 Sunny 76 24.4 63 17.2 64 64 SW 7 11 30.08 1019 10 16 0.00 0.00
11:53 am 11:53 Mostly Sunny 79 26.1 63 17.2 58 58 VRB 5 7 30.07 1018 10 16 0.00 0.00
12:53 pm 12:53 Partly Cloudy 81 27.2 64 17.8 57 57 SW 6 9 30.06 1018 10 16 0.00 0.00
1:53 pm 13:53 Mostly Cloudy 81 27.2 61 16.1 51 51 WNW 6 9 30.04 1017 10 16 0.00 0.00
2:53 pm 14:53 Mostly Sunny 84 28.9 61 16.1 46 46 W 8 13 30.02 1017 10 16 0.00 0.00
3:53 pm 15:53 Mostly Sunny 85 29.4 60 15.6 43 43 undefined N/A 30.00 1016 10 16 0.00 0.00
4:53 pm 16:53 Sunny 85 29.4 59 15 42 42 VRB 6 9 29.98 1015 10 16 0.00 0.00
5:53 pm 17:53 Mostly Sunny 85 29.4 59 15 42 42 WSW 8 13 29.98 1015 10 16 0.00 0.00
6:53 pm 18:53 Sunny 82 27.8 59 15 46 46 SW 8 13 29.98 1015 10 16 0.00 0.00
7:53 pm 19:53 Sunny 79 26.1 59 15 50 50 WSW 8 13 29.99 1016 10 16 0.00 0.00
8:53 pm 20:53 Mostly Clear 77 25 61 16.1 58 58 SW 6 9 30.00 1016 10 16 0.00 0.00
9:53 pm 21:53 Clear 73 22.8 60 15.6 64 64 WSW 5 7 30.02 1017 10 16 0.00 0.00
10:53 pm 22:53 Clear 69 20.6 60 15.6 73 73 Calm 30.02 1017 10 16 0.00 0.00
11:53 pm 23:53 Clear 68 20 61 16.1 78 78 Calm 30.01 1016 10 16 0.00 0.00

Powered by AerisWeather